* Astronomy

Members Login
Username 
 
Password 
    Remember Me  
Post Info TOPIC: Asteroid 2011 YW62


L

Posts: 131433
Date:
Asteroid 2011 YW62
Permalink  
 


Orbital elements:
2011 YW62                                                Earth MOID = 0.2060 AU
Epoch 2012 Mar. 14.0 TT = JDT 2456000.5                 MPC
M   9.07831              (2000.0)            P               Q
n   0.35195682     Peri.  107.11330     -0.77041084     -0.63689011
a   1.9867496      Node    33.34307     +0.56308907     -0.70102896
e   0.4033075      Incl.    3.01918     +0.29899470     -0.32082609
P   2.80           H   23.5           G   0.15           U   8

MPEC 2012 - A08



__________________
Page 1 of 1  sorted by
 
Quick Reply

Please log in to post quick replies.



Create your own FREE Forum
Report Abuse
Powered by ActiveBoard